Retour au catalogue

DELTA 1 DEB

YO

ActifVLEO
NORAD 228·DEBRIS·🇺🇸 United States

Lancé Feb 8, 1962 depuis Cape Canaveral Space Force Station

Loading…

Prochains Passages (prochaines 24 heures)

TLE

FraisSource: Space-Track

Époque: Sep 5, 2026, 06:31 UTC

1   228U 62002C   26248.27178602  .00025318  00000-0  33056-3 0  9996
2   228  48.4280 249.6663 0001225 128.0105 232.0953 15.58406474455577

Suivez DELTA 1 DEB en temps réel avec AllMySat

Download on the App Store